This demonstration page uses our WeatherBlox Daily Observations layout. Learn more.

Left ArrowRight Arrow

41.12389, -100.76542

Hourly Observations for May 23, 2017

Temp ( °F °C ) Dew Point ( °F °C ) Humidity (%) Winds ( mph kmh ) Pressure ( in mb ) Visibility ( mi km ) Precip ( " mm )
12:53 am 00:53 Clear 41 5 40 4.4 96 96 NW 7 11 30.10 1019 10 16 0.00 0.00
1:53 am 01:53 Clear 42 5.6 41 5 96 96 NW 8 13 30.08 1019 10 16 0.00 0.00
2:53 am 02:53 Mostly Clear 41 5 40 4.4 96 96 WNW 6 9 30.07 1018 10 16 0.00 0.00
3:53 am 03:53 Mostly Clear 41 5 39 3.9 93 93 W 7 11 30.06 1018 10 16 0.00 0.00
4:53 am 04:53 Clear 41 5 39 3.9 93 93 WNW 8 13 30.06 1018 10 16 0.00 0.00
5:53 am 05:53 Cloudy 43 6.1 41 5 93 93 W 9 15 30.06 1018 10 16 0.00 0.00
6:53 am 06:53 Cloudy 45 7.2 43 6.1 93 93 W 8 13 30.05 1018 10 16 0.00 0.00
7:53 am 07:53 Cloudy 47 8.3 44 6.7 90 90 W 9 15 30.05 1018 10 16 0.00 0.00
8:53 am 08:53 Cloudy 50 10 47 8.3 89 89 NW 12 19 30.05 1018 10 16 0.00 0.00
9:53 am 09:53 Mostly Cloudy 55 12.8 45 7.2 69 69 NNW 23 37 30.05 1018 10 16 0.00 0.00
10:53 am 10:53 Mostly Sunny 58 14.4 41 5 53 53 NNW 17 28 30.04 1017 10 16 0.00 0.00
11:53 am 11:53 Mostly Cloudy 56 13.3 36 2.2 47 47 NNW 20 31 30.04 1017 10 16 0.00 0.00
12:53 pm 12:53 Cloudy 55 12.8 37 2.8 51 51 NNW 18 30 30.04 1017 10 16 0.00 0.00
1:53 pm 13:53 Cloudy 57 13.9 35 1.7 44 44 NNW 24 39 30.02 1017 10 16 0.00 0.00
2:53 pm 14:53 Cloudy 56 13.3 35 1.7 46 46 N 24 39 30.02 1017 10 16 0.00 0.00
3:53 pm 15:53 Cloudy 58 14.4 39 3.9 50 50 NNW 16 26 30.01 1016 10 16 0.00 0.00
4:53 pm 16:53 Cloudy 57 13.9 37 2.8 47 47 N 20 31 30.00 1016 10 16 0.00 0.00
5:53 pm 17:53 Cloudy 59 15 36 2.2 42 42 NNW 24 39 29.98 1015 10 16 0.00 0.00
6:53 pm 18:53 Cloudy 59 15 36 2.2 42 42 N 22 35 29.97 1015 10 16 0.00 0.00
7:53 pm 19:53 Sunny 57 13.9 35 1.7 44 44 N 17 28 29.97 1015 10 16 0.00 0.00
8:53 pm 20:53 Sunny 53 11.7 36 2.2 52 52 N 10 17 29.98 1015 10 16 0.00 0.00
9:53 pm 21:53 Clear 48 8.9 37 2.8 66 66 N 6 9 29.98 1015 10 16 0.00 0.00
10:53 pm 22:53 Clear 48 8.9 38 3.3 68 68 N 12 19 29.99 1016 10 16 0.00 0.00
11:53 pm 23:53 Clear 44 6.7 39 3.9 83 83 N 8 13 30.00 1016 10 16 0.00 0.00

Powered by AerisWeather